カタログに戻る

COSMOS 2251 DEB

運用中VLEO
NORAD 34451·DEBRIS·🇷🇺 Russia

打ち上げ Jun 16, 1993 から Plesetsk Cosmodrome

Loading…

次のパス (今後24時間)

TLE

最新Source: Space-Track

元期: Sep 14, 2026, 09:28 UTC

1 34451U 93036SU  26257.39482145  .00037099  00000-0  17973-2 0  9993
2 34451  74.0381 241.5274 0017715 209.4013 150.6189 15.18235323927884

AllMySatでCOSMOS 2251 DEBをリアルタイム追跡

Download on the App Store